owner,sensor,date,latitude,longitude,vertical_datum,wind_speed,wind_to_direction,wind_speed_of_gust,qcFlag 
WAVCIS,ioos:station:WAVCIS:CSI03:3,2010-01-01T00:00:00Z,29.4412,-92.0613,10.0,0.609,194.0,,'11111222,11111222,99999999' 
WAVCIS,ioos:station:WAVCIS:CSI03:3,2010-01-01T01:00:00Z,29.4412,-92.0613,10.0,0.859,166.0,,'11111222,11111222,99999999' 
WAVCIS,ioos:station:WAVCIS:CSI03:3,2010-01-01T02:00:00Z,29.4412,-92.0613,10.0,0.795,10.0,,'11111222,11111222,99999999' 
WAVCIS,ioos:station:WAVCIS:CSI03:3,2010-01-01T03:00:00Z,29.4412,-92.0613,10.0,7.31,326.0,,'11111222,11111222,99999999' 
WAVCIS,ioos:station:WAVCIS:CSI03:3,2010-01-01T04:00:00Z,29.4412,-92.0613,10.0,8.09,345.0,,'11111222,11111222,99999999' 
WAVCIS,ioos:station:WAVCIS:CSI03:3,2010-01-01T05:00:00Z,29.4412,-92.0613,10.0,9.07,351.0,,'11111222,11111222,99999999' 
WAVCIS,ioos:station:WAVCIS:CSI03:3,2010-01-01T06:00:00Z,29.4412,-92.0613,10.0,5.762,4.0,,'11111222,11111222,99999999' 
WAVCIS,ioos:station:WAVCIS:CSI03:3,2010-01-01T07:00:00Z,29.4412,-92.0613,10.0,7.51,14.0,,'11111222,11111222,99999999' 
WAVCIS,ioos:station:WAVCIS:CSI03:3,2010-01-01T16:00:00Z,29.4412,-92.0613,10.0,5.761,37.0,,'11111222,11111222,99999999' 
WAVCIS,ioos:station:WAVCIS:CSI03:3,2010-01-01T17:00:00Z,29.4412,-92.0613,10.0,7.1,21.0,,'11111222,11111222,99999999' 
WAVCIS,ioos:station:WAVCIS:CSI03:3,2010-01-01T18:00:00Z,29.4412,-92.0613,10.0,5.488,17.0,,'11111222,11111222,99999999' 
WAVCIS,ioos:station:WAVCIS:CSI03:3,2010-01-01T19:00:00Z,29.4412,-92.0613,10.0,6.485,12.0,,'11111222,11111222,99999999' 
WAVCIS,ioos:station:WAVCIS:CSI03:3,2010-01-01T20:00:00Z,29.4412,-92.0613,10.0,6.174,11.0,,'11111222,11111222,99999999' 
WAVCIS,ioos:station:WAVCIS:CSI03:3,2010-01-01T21:00:00Z,29.4412,-92.0613,10.0,6.199,17.0,,'11111222,11111222,99999999' 
WAVCIS,ioos:station:WAVCIS:CSI03:3,2010-01-01T22:00:00Z,29.4412,-92.0613,10.0,5.839,20.0,,'11111222,11111222,99999999' 
WAVCIS,ioos:station:WAVCIS:CSI03:3,2010-01-01T23:00:00Z,29.4412,-92.0613,10.0,6.543,22.0,,'11111222,11111222,99999999' 
WAVCIS,ioos:station:WAVCIS:CSI03:3,2010-01-02T00:00:00Z,29.4412,-92.0613,10.0,6.373,18.0,,'11111222,11111222,99999999' 
WAVCIS,ioos:station:WAVCIS:CSI03:3,2010-01-02T01:00:00Z,29.4412,-92.0613,10.0,6.058,22.0,,'11111222,11111222,99999999' 
WAVCIS,ioos:station:WAVCIS:CSI03:3,2010-01-02T02:00:00Z,29.4412,-92.0613,10.0,4.177,38.0,,'11111222,11111222,99999999' 
WAVCIS,ioos:station:WAVCIS:CSI03:3,2010-01-02T03:00:00Z,29.4412,-92.0613,10.0,4.267,40.0,,'11111222,11111222,99999999' 
WAVCIS,ioos:station:WAVCIS:CSI03:3,2010-01-02T04:00:00Z,29.4412,-92.0613,10.0,4.273,37.0,,'11111222,11111222,99999999' 
WAVCIS,ioos:station:WAVCIS:CSI03:3,2010-01-02T05:00:00Z,29.4412,-92.0613,10.0,4.776,35.0,,'11111222,11111222,99999999' 
WAVCIS,ioos:station:WAVCIS:CSI03:3,2010-01-02T06:00:00Z,29.4412,-92.0613,10.0,4.832,36.0,,'11111222,11111222,99999999' 
WAVCIS,ioos:station:WAVCIS:CSI03:3,2010-01-02T07:00:00Z,29.4412,-92.0613,10.0,4.169,40.0,,'11111222,11111222,99999999' 
WAVCIS,ioos:station:WAVCIS:CSI03:3,2010-01-02T08:00:00Z,29.4412,-92.0613,10.0,5.742,53.0,,'11111222,11111222,99999999' 
WAVCIS,ioos:station:WAVCIS:CSI03:3,2010-01-02T09:00:00Z,29.4412,-92.0613,10.0,6.57,54.0,,'11111222,11111222,99999999' 
WAVCIS,ioos:station:WAVCIS:CSI03:3,2010-01-02T10:00:00Z,29.4412,-92.0613,10.0,7.75,55.0,,'11111222,11111222,99999999' 
WAVCIS,ioos:station:WAVCIS:CSI03:3,2010-01-02T11:00:00Z,29.4412,-92.0613,10.0,8.31,55.0,,'11111222,11111222,99999999' 
WAVCIS,ioos:station:WAVCIS:CSI03:3,2010-01-02T12:00:00Z,29.4412,-92.0613,10.0,7.53,54.0,,'11111222,11111222,99999999' 
WAVCIS,ioos:station:WAVCIS:CSI03:3,2010-01-02T13:00:00Z,29.4412,-92.0613,10.0,7.26,56.0,,'11111222,11111222,99999999' 
WAVCIS,ioos:station:WAVCIS:CSI03:3,2010-01-02T14:00:00Z,29.4412,-92.0613,10.0,6.242,62.0,,'11111222,11111222,99999999' 
WAVCIS,ioos:station:WAVCIS:CSI03:3,2010-01-02T15:00:00Z,29.4412,-92.0613,10.0,7.02,62.0,,'11111222,11111222,99999999' 
WAVCIS,ioos:station:WAVCIS:CSI03:3,2010-01-02T16:00:00Z,29.4412,-92.0613,10.0,6.673,68.0,,'11111222,11111222,99999999' 
WAVCIS,ioos:station:WAVCIS:CSI03:3,2010-01-02T17:00:00Z,29.4412,-92.0613,10.0,5.192,69.0,,'11111222,11111222,99999999' 
WAVCIS,ioos:station:WAVCIS:CSI03:3,2010-01-02T18:00:00Z,29.4412,-92.0613,10.0,4.476,66.0,,'11111222,11111222,99999999' 
WAVCIS,ioos:station:WAVCIS:CSI03:3,2010-01-02T19:00:00Z,29.4412,-92.0613,10.0,4.247,65.0,,'11111222,11111222,99999999' 
WAVCIS,ioos:station:WAVCIS:CSI03:3,2010-01-02T20:00:00Z,29.4412,-92.0613,10.0,4.805,70.0,,'11111222,11111222,99999999' 
WAVCIS,ioos:station:WAVCIS:CSI03:3,2010-01-02T21:00:00Z,29.4412,-92.0613,10.0,2.897,102.0,,'11111222,11111222,99999999' 
WAVCIS,ioos:station:WAVCIS:CSI03:3,2010-01-02T22:00:00Z,29.4412,-92.0613,10.0,2.467,131.0,,'11111222,11111222,99999999' 
WAVCIS,ioos:station:WAVCIS:CSI03:3,2010-01-02T23:00:00Z,29.4412,-92.0613,10.0,1.877,118.0,,'11111222,11111222,99999999' 
WAVCIS,ioos:station:WAVCIS:CSI03:3,2010-01-03T00:00:00Z,29.4412,-92.0613,10.0,1.836,103.0,,'11111222,11111222,99999999' 
WAVCIS,ioos:station:WAVCIS:CSI03:3,2010-01-03T01:00:00Z,29.4412,-92.0613,10.0,1.816,88.0,,'11111222,11111222,99999999' 
WAVCIS,ioos:station:WAVCIS:CSI03:3,2010-01-03T02:00:00Z,29.4412,-92.0613,10.0,1.676,77.0,,'11111222,11111222,99999999' 
WAVCIS,ioos:station:WAVCIS:CSI03:3,2010-01-03T03:00:00Z,29.4412,-92.0613,10.0,2.23,83.0,,'11111222,11111222,99999999' 
WAVCIS,ioos:station:WAVCIS:CSI03:3,2010-01-03T04:00:00Z,29.4412,-92.0613,10.0,2.349,73.0,,'11111222,11111222,99999999' 
WAVCIS,ioos:station:WAVCIS:CSI03:3,2010-01-03T05:00:00Z,29.4412,-92.0613,10.0,3.847,75.0,,'11111222,11111222,99999999' 
WAVCIS,ioos:station:WAVCIS:CSI03:3,2010-01-03T06:00:00Z,29.4412,-92.0613,10.0,5.161,59.0,,'11111222,11111222,99999999' 
WAVCIS,ioos:station:WAVCIS:CSI03:3,2010-01-03T07:00:00Z,29.4412,-92.0613,10.0,4.385,62.0,,'11111222,11111222,99999999' 
WAVCIS,ioos:station:WAVCIS:CSI03:3,2010-01-03T08:00:00Z,29.4412,-92.0613,10.0,4.3,64.0,,'11111222,11111222,99999999' 
WAVCIS,ioos:station:WAVCIS:CSI03:3,2010-01-03T09:00:00Z,29.4412,-92.0613,10.0,6.436,65.0,,'11111222,11111222,99999999' 
WAVCIS,ioos:station:WAVCIS:CSI03:3,2010-01-03T10:00:00Z,29.4412,-92.0613,10.0,8.39,72.0,,'11111222,11111222,99999999' 
WAVCIS,ioos:station:WAVCIS:CSI03:3,2010-01-03T11:00:00Z,29.4412,-92.0613,10.0,9.99,73.0,,'11111222,11111222,99999999' 
WAVCIS,ioos:station:WAVCIS:CSI03:3,2010-01-03T12:00:00Z,29.4412,-92.0613,10.0,8.43,76.0,,'11111222,11111222,99999999' 
WAVCIS,ioos:station:WAVCIS:CSI03:3,2010-01-03T13:00:00Z,29.4412,-92.0613,10.0,8.69,72.0,,'11111222,11111222,99999999' 
WAVCIS,ioos:station:WAVCIS:CSI03:3,2010-01-03T14:00:00Z,29.4412,-92.0613,10.0,8.68,81.0,,'11111222,11111222,99999999' 
WAVCIS,ioos:station:WAVCIS:CSI03:3,2010-01-03T15:00:00Z,29.4412,-92.0613,10.0,8.22,84.0,,'11111222,11111222,99999999' 
WAVCIS,ioos:station:WAVCIS:CSI03:3,2010-01-03T16:00:00Z,29.4412,-92.0613,10.0,7.76,88.0,,'11111222,11111222,99999999' 
WAVCIS,ioos:station:WAVCIS:CSI03:3,2010-01-03T17:00:00Z,29.4412,-92.0613,10.0,6.501,94.0,,'11111222,11111222,99999999' 
WAVCIS,ioos:station:WAVCIS:CSI03:3,2010-01-03T18:00:00Z,29.4412,-92.0613,10.0,4.872,103.0,,'11111222,11111222,99999999' 
WAVCIS,ioos:station:WAVCIS:CSI03:3,2010-01-03T19:00:00Z,29.4412,-92.0613,10.0,3.87,100.0,,'11111222,11111222,99999999' 
WAVCIS,ioos:station:WAVCIS:CSI03:3,2010-01-03T20:00:00Z,29.4412,-92.0613,10.0,5.307,61.0,,'11111222,11111222,99999999' 
WAVCIS,ioos:station:WAVCIS:CSI03:3,2010-01-03T21:00:00Z,29.4412,-92.0613,10.0,4.208,59.0,,'11111222,11111222,99999999' 
WAVCIS,ioos:station:WAVCIS:CSI03:3,2010-01-03T22:00:00Z,29.4412,-92.0613,10.0,4.342,59.0,,'11111222,11111222,99999999' 
WAVCIS,ioos:station:WAVCIS:CSI03:3,2010-01-03T23:00:00Z,29.4412,-92.0613,10.0,4.144,54.0,,'11111222,11111222,99999999' 
WAVCIS,ioos:station:WAVCIS:CSI03:3,2010-01-04T00:00:00Z,29.4412,-92.0613,10.0,4.062,57.0,,'11111222,11111222,99999999' 
WAVCIS,ioos:station:WAVCIS:CSI03:3,2010-01-04T01:00:00Z,29.4412,-92.0613,10.0,3.936,59.0,,'11111222,11111222,99999999' 
WAVCIS,ioos:station:WAVCIS:CSI03:3,2010-01-04T02:00:00Z,29.4412,-92.0613,10.0,4.947,53.0,,'11111222,11111222,99999999' 
WAVCIS,ioos:station:WAVCIS:CSI03:3,2010-01-04T03:00:00Z,29.4412,-92.0613,10.0,5.707,54.0,,'11111222,11111222,99999999' 
WAVCIS,ioos:station:WAVCIS:CSI03:3,2010-01-04T04:00:00Z,29.4412,-92.0613,10.0,4.756,54.0,,'11111222,11111222,99999999' 
WAVCIS,ioos:station:WAVCIS:CSI03:3,2010-01-04T05:00:00Z,29.4412,-92.0613,10.0,5.171,55.0,,'11111222,11111222,99999999' 
WAVCIS,ioos:station:WAVCIS:CSI03:3,2010-01-04T06:00:00Z,29.4412,-92.0613,10.0,4.43,25.0,,'11111222,11111222,99999999' 
WAVCIS,ioos:station:WAVCIS:CSI03:3,2010-01-04T07:00:00Z,29.4412,-92.0613,10.0,4.057,31.0,,'11111222,11111222,99999999' 
WAVCIS,ioos:station:WAVCIS:CSI03:3,2010-01-04T08:00:00Z,29.4412,-92.0613,10.0,4.338,46.0,,'11111222,11111222,99999999' 
WAVCIS,ioos:station:WAVCIS:CSI03:3,2010-01-04T09:00:00Z,29.4412,-92.0613,10.0,5.424,55.0,,'11111222,11111222,99999999' 
WAVCIS,ioos:station:WAVCIS:CSI03:3,2010-01-04T10:00:00Z,29.4412,-92.0613,10.0,3.545,44.0,,'11111222,11111222,99999999' 
WAVCIS,ioos:station:WAVCIS:CSI03:3,2010-01-04T11:00:00Z,29.4412,-92.0613,10.0,3.92,26.0,,'11111222,11111222,99999999' 
WAVCIS,ioos:station:WAVCIS:CSI03:3,2010-01-04T12:00:00Z,29.4412,-92.0613,10.0,2.981,41.0,,'11111222,11111222,99999999' 
WAVCIS,ioos:station:WAVCIS:CSI03:3,2010-01-04T13:00:00Z,29.4412,-92.0613,10.0,4.273,54.0,,'11111222,11111222,99999999' 
WAVCIS,ioos:station:WAVCIS:CSI03:3,2010-01-04T14:00:00Z,29.4412,-92.0613,10.0,4.322,55.0,,'11111222,11111222,99999999' 
WAVCIS,ioos:station:WAVCIS:CSI03:3,2010-01-04T15:00:00Z,29.4412,-92.0613,10.0,5.287,13.0,,'11111222,11111222,99999999' 
WAVCIS,ioos:station:WAVCIS:CSI03:3,2010-01-04T16:00:00Z,29.4412,-92.0613,10.0,5.261,11.0,,'11111222,11111222,99999999' 
WAVCIS,ioos:station:WAVCIS:CSI03:3,2010-01-04T17:00:00Z,29.4412,-92.0613,10.0,4.922,0.0,,'11111222,11111222,99999999' 
WAVCIS,ioos:station:WAVCIS:CSI03:3,2010-01-04T18:00:00Z,29.4412,-92.0613,10.0,6.288,358.0,,'11111222,11111222,99999999' 
WAVCIS,ioos:station:WAVCIS:CSI03:3,2010-01-04T19:00:00Z,29.4412,-92.0613,10.0,6.861,359.0,,'11111222,11111222,99999999' 
WAVCIS,ioos:station:WAVCIS:CSI03:3,2010-01-04T20:00:00Z,29.4412,-92.0613,10.0,8.33,359.0,,'11111222,11111222,99999999' 
WAVCIS,ioos:station:WAVCIS:CSI03:3,2010-01-04T21:00:00Z,29.4412,-92.0613,10.0,8.03,358.0,,'11111222,11111222,99999999' 
WAVCIS,ioos:station:WAVCIS:CSI03:3,2010-01-04T22:00:00Z,29.4412,-92.0613,10.0,8.51,359.0,,'11111222,11111222,99999999' 
WAVCIS,ioos:station:WAVCIS:CSI03:3,2010-01-04T23:00:00Z,29.4412,-92.0613,10.0,8.5,11.0,,'11111222,11111222,99999999' 
WAVCIS,ioos:station:WAVCIS:CSI03:3,2010-01-05T00:00:00Z,29.4412,-92.0613,10.0,7.42,3.0,,'11111222,11111222,99999999' 
WAVCIS,ioos:station:WAVCIS:CSI03:3,2010-01-05T01:00:00Z,29.4412,-92.0613,10.0,8.32,0.0,,'11111222,11111222,99999999' 
WAVCIS,ioos:station:WAVCIS:CSI03:3,2010-01-05T02:00:00Z,29.4412,-92.0613,10.0,7.19,3.0,,'11111222,11111222,99999999' 
WAVCIS,ioos:station:WAVCIS:CSI03:3,2010-01-05T03:00:00Z,29.4412,-92.0613,10.0,6.385,6.0,,'11111222,11111222,99999999' 
WAVCIS,ioos:station:WAVCIS:CSI03:3,2010-01-05T04:00:00Z,29.4412,-92.0613,10.0,6.798,8.0,,'11111222,11111222,99999999' 
WAVCIS,ioos:station:WAVCIS:CSI03:3,2010-01-05T05:00:00Z,29.4412,-92.0613,10.0,7.37,15.0,,'11111222,11111222,99999999' 
WAVCIS,ioos:station:WAVCIS:CSI03:3,2010-01-05T06:00:00Z,29.4412,-92.0613,10.0,6.246,18.0,,'11111222,11111222,99999999' 
WAVCIS,ioos:station:WAVCIS:CSI03:3,2010-01-05T07:00:00Z,29.4412,-92.0613,10.0,5.236,16.0,,'11111222,11111222,99999999' 
WAVCIS,ioos:station:WAVCIS:CSI03:3,2010-01-05T08:00:00Z,29.4412,-92.0613,10.0,5.392,15.0,,'11111222,11111222,99999999' 
WAVCIS,ioos:station:WAVCIS:CSI03:3,2010-01-05T09:00:00Z,29.4412,-92.0613,10.0,5.481,9.0,,'11111222,11111222,99999999' 
WAVCIS,ioos:station:WAVCIS:CSI03:3,2010-01-05T10:00:00Z,29.4412,-92.0613,10.0,5.435,11.0,,'11111222,11111222,99999999' 
WAVCIS,ioos:station:WAVCIS:CSI03:3,2010-01-05T11:00:00Z,29.4412,-92.0613,10.0,7.08,15.0,,'11111222,11111222,99999999' 
WAVCIS,ioos:station:WAVCIS:CSI03:3,2010-01-05T12:00:00Z,29.4412,-92.0613,10.0,6.574,16.0,,'11111222,11111222,99999999' 
WAVCIS,ioos:station:WAVCIS:CSI03:3,2010-01-05T13:00:00Z,29.4412,-92.0613,10.0,5.222,23.0,,'11111222,11111222,99999999' 
WAVCIS,ioos:station:WAVCIS:CSI03:3,2010-01-05T14:00:00Z,29.4412,-92.0613,10.0,5.167,17.0,,'11111222,11111222,99999999' 
WAVCIS,ioos:station:WAVCIS:CSI03:3,2010-01-05T15:00:00Z,29.4412,-92.0613,10.0,4.028,31.0,,'11111222,11111222,99999999' 
WAVCIS,ioos:station:WAVCIS:CSI03:3,2010-01-05T16:00:00Z,29.4412,-92.0613,10.0,3.879,25.0,,'11111222,11111222,99999999' 
WAVCIS,ioos:station:WAVCIS:CSI03:3,2010-01-05T17:00:00Z,29.4412,-92.0613,10.0,3.996,23.0,,'11111222,11111222,99999999' 
WAVCIS,ioos:station:WAVCIS:CSI03:3,2010-01-05T18:00:00Z,29.4412,-92.0613,10.0,3.442,12.0,,'11111222,11111222,99999999' 
WAVCIS,ioos:station:WAVCIS:CSI03:3,2010-01-05T19:00:00Z,29.4412,-92.0613,10.0,1.963,20.0,,'11111222,11111222,99999999' 
WAVCIS,ioos:station:WAVCIS:CSI03:3,2010-01-05T20:00:00Z,29.4412,-92.0613,10.0,0.292,343.0,,'11111222,11111222,99999999' 
WAVCIS,ioos:station:WAVCIS:CSI03:3,2010-01-05T21:00:00Z,29.4412,-92.0613,10.0,0.622,66.0,,'11111222,11111222,99999999' 
WAVCIS,ioos:station:WAVCIS:CSI03:3,2010-01-05T22:00:00Z,29.4412,-92.0613,10.0,0.956,176.0,,'11111222,11111222,99999999' 
WAVCIS,ioos:station:WAVCIS:CSI03:3,2010-01-05T23:00:00Z,29.4412,-92.0613,10.0,1.774,278.0,,'11111222,11111222,99999999' 
WAVCIS,ioos:station:WAVCIS:CSI03:3,2010-01-06T00:00:00Z,29.4412,-92.0613,10.0,1.487,307.0,,'11111222,11111222,99999999' 
WAVCIS,ioos:station:WAVCIS:CSI03:3,2010-01-06T01:00:00Z,29.4412,-92.0613,10.0,4.109,332.0,,'11111222,11111222,99999999' 
WAVCIS,ioos:station:WAVCIS:CSI03:3,2010-01-06T02:00:00Z,29.4412,-92.0613,10.0,3.183,348.0,,'11111222,11111222,99999999' 
WAVCIS,ioos:station:WAVCIS:CSI03:3,2010-01-06T03:00:00Z,29.4412,-92.0613,10.0,1.708,357.0,,'11111222,11111222,99999999' 
WAVCIS,ioos:station:WAVCIS:CSI03:3,2010-01-06T04:00:00Z,29.4412,-92.0613,10.0,1.366,39.0,,'11111222,11111222,99999999' 
WAVCIS,ioos:station:WAVCIS:CSI03:3,2010-01-06T05:00:00Z,29.4412,-92.0613,10.0,1.481,7.0,,'11111222,11111222,99999999' 
WAVCIS,ioos:station:WAVCIS:CSI03:3,2010-01-06T06:00:00Z,29.4412,-92.0613,10.0,0.978,3.0,,'11111222,11111222,99999999' 
WAVCIS,ioos:station:WAVCIS:CSI03:3,2010-01-06T07:00:00Z,29.4412,-92.0613,10.0,0.584,3.0,,'11111222,11111222,99999999' 
WAVCIS,ioos:station:WAVCIS:CSI03:3,2010-01-06T08:00:00Z,29.4412,-92.0613,10.0,0.824,57.0,,'11111222,11111222,99999999' 
WAVCIS,ioos:station:WAVCIS:CSI03:3,2010-01-06T09:00:00Z,29.4412,-92.0613,10.0,2.489,76.0,,'11111222,11111222,99999999' 
WAVCIS,ioos:station:WAVCIS:CSI03:3,2010-01-06T10:00:00Z,29.4412,-92.0613,10.0,3.69,65.0,,'11111222,11111222,99999999' 
WAVCIS,ioos:station:WAVCIS:CSI03:3,2010-01-06T11:00:00Z,29.4412,-92.0613,10.0,2.975,77.0,,'11111222,11111222,99999999' 
WAVCIS,ioos:station:WAVCIS:CSI03:3,2010-01-06T12:00:00Z,29.4412,-92.0613,10.0,2.886,67.0,,'11111222,11111222,99999999' 
WAVCIS,ioos:station:WAVCIS:CSI03:3,2010-01-06T13:00:00Z,29.4412,-92.0613,10.0,4.775,87.0,,'11111222,11111222,99999999' 
WAVCIS,ioos:station:WAVCIS:CSI03:3,2010-01-06T14:00:00Z,29.4412,-92.0613,10.0,4.609,96.0,,'11111222,11111222,99999999' 
WAVCIS,ioos:station:WAVCIS:CSI03:3,2010-01-06T15:00:00Z,29.4412,-92.0613,10.0,5.495,99.0,,'11111222,11111222,99999999' 
WAVCIS,ioos:station:WAVCIS:CSI03:3,2010-01-06T16:00:00Z,29.4412,-92.0613,10.0,6.771,109.0,,'11111222,11111222,99999999' 
WAVCIS,ioos:station:WAVCIS:CSI03:3,2010-01-06T17:00:00Z,29.4412,-92.0613,10.0,6.701,117.0,,'11111222,11111222,99999999' 
WAVCIS,ioos:station:WAVCIS:CSI03:3,2010-01-06T18:00:00Z,29.4412,-92.0613,10.0,6.693,115.0,,'11111222,11111222,99999999' 
WAVCIS,ioos:station:WAVCIS:CSI03:3,2010-01-06T19:00:00Z,29.4412,-92.0613,10.0,6.606,119.0,,'11111222,11111222,99999999' 
WAVCIS,ioos:station:WAVCIS:CSI03:3,2010-01-06T20:00:00Z,29.4412,-92.0613,10.0,7.82,122.0,,'11111222,11111222,99999999' 
WAVCIS,ioos:station:WAVCIS:CSI03:3,2010-01-06T21:00:00Z,29.4412,-92.0613,10.0,7.89,123.0,,'11111222,11111222,99999999' 
WAVCIS,ioos:station:WAVCIS:CSI03:3,2010-01-06T22:00:00Z,29.4412,-92.0613,10.0,6.55,137.0,,'11111222,11111222,99999999' 
WAVCIS,ioos:station:WAVCIS:CSI03:3,2010-01-06T23:00:00Z,29.4412,-92.0613,10.0,6.582,151.0,,'11111222,11111222,99999999' 
WAVCIS,ioos:station:WAVCIS:CSI03:3,2010-01-07T00:00:00Z,29.4412,-92.0613,10.0,8.0,140.0,,'11111222,11111222,99999999' 
WAVCIS,ioos:station:WAVCIS:CSI03:3,2010-01-07T01:00:00Z,29.4412,-92.0613,10.0,8.08,138.0,,'11111222,11111222,99999999' 
WAVCIS,ioos:station:WAVCIS:CSI03:3,2010-01-07T02:00:00Z,29.4412,-92.0613,10.0,8.19,128.0,,'11111222,11111222,99999999' 
WAVCIS,ioos:station:WAVCIS:CSI03:3,2010-01-07T03:00:00Z,29.4412,-92.0613,10.0,7.75,130.0,,'11111222,11111222,99999999' 
WAVCIS,ioos:station:WAVCIS:CSI03:3,2010-01-07T04:00:00Z,29.4412,-92.0613,10.0,7.8,131.0,,'11111222,11111222,99999999' 
WAVCIS,ioos:station:WAVCIS:CSI03:3,2010-01-07T05:00:00Z,29.4412,-92.0613,10.0,7.45,131.0,,'11111222,11111222,99999999' 
WAVCIS,ioos:station:WAVCIS:CSI03:3,2010-01-07T06:00:00Z,29.4412,-92.0613,10.0,6.554,125.0,,'11111222,11111222,99999999' 
WAVCIS,ioos:station:WAVCIS:CSI03:3,2010-01-07T07:00:00Z,29.4412,-92.0613,10.0,6.991,105.0,,'11111222,11111222,99999999' 
WAVCIS,ioos:station:WAVCIS:CSI03:3,2010-01-07T08:00:00Z,29.4412,-92.0613,10.0,7.21,116.0,,'11111222,11111222,99999999' 
WAVCIS,ioos:station:WAVCIS:CSI03:3,2010-01-07T09:00:00Z,29.4412,-92.0613,10.0,6.198,116.0,,'11111222,11111222,99999999' 
WAVCIS,ioos:station:WAVCIS:CSI03:3,2010-01-07T10:00:00Z,29.4412,-92.0613,10.0,6.994,118.0,,'11111222,11111222,99999999' 
WAVCIS,ioos:station:WAVCIS:CSI03:3,2010-01-07T11:00:00Z,29.4412,-92.0613,10.0,5.859,141.0,,'11111222,11111222,99999999' 
WAVCIS,ioos:station:WAVCIS:CSI03:3,2010-01-07T12:00:00Z,29.4412,-92.0613,10.0,6.251,128.0,,'11111222,11111222,99999999' 
WAVCIS,ioos:station:WAVCIS:CSI03:3,2010-01-07T13:00:00Z,29.4412,-92.0613,10.0,7.15,140.0,,'11111222,11111222,99999999' 
WAVCIS,ioos:station:WAVCIS:CSI03:3,2010-01-07T14:00:00Z,29.4412,-92.0613,10.0,5.945,140.0,,'11111222,11111222,99999999' 
WAVCIS,ioos:station:WAVCIS:CSI03:3,2010-01-07T15:00:00Z,29.4412,-92.0613,10.0,5.581,133.0,,'11111222,11111222,99999999' 
WAVCIS,ioos:station:WAVCIS:CSI03:3,2010-01-07T16:00:00Z,29.4412,-92.0613,10.0,4.04,126.0,,'11111222,11111222,99999999' 
WAVCIS,ioos:station:WAVCIS:CSI03:3,2010-01-07T17:00:00Z,29.4412,-92.0613,10.0,1.974,260.0,,'11111222,11111222,99999999' 
WAVCIS,ioos:station:WAVCIS:CSI03:3,2010-01-07T18:00:00Z,29.4412,-92.0613,10.0,8.13,331.0,,'11111222,11111222,99999999' 
WAVCIS,ioos:station:WAVCIS:CSI03:3,2010-01-07T19:00:00Z,29.4412,-92.0613,10.0,8.88,9.0,,'11111222,11111222,99999999' 
WAVCIS,ioos:station:WAVCIS:CSI03:3,2010-01-07T20:00:00Z,29.4412,-92.0613,10.0,10.89,13.0,,'11111222,11111222,99999999' 
WAVCIS,ioos:station:WAVCIS:CSI03:3,2010-01-07T21:00:00Z,29.4412,-92.0613,10.0,8.91,19.0,,'11111222,11111222,99999999' 
WAVCIS,ioos:station:WAVCIS:CSI03:3,2010-01-07T22:00:00Z,29.4412,-92.0613,10.0,10.02,11.0,,'11111222,11111222,99999999' 
WAVCIS,ioos:station:WAVCIS:CSI03:3,2010-01-07T23:00:00Z,29.4412,-92.0613,10.0,11.02,16.0,,'11111222,11111222,99999999' 
WAVCIS,ioos:station:WAVCIS:CSI03:3,2010-01-08T00:00:00Z,29.4412,-92.0613,10.0,10.48,10.0,,'11111222,11111222,99999999' 
WAVCIS,ioos:station:WAVCIS:CSI03:3,2010-01-08T01:00:00Z,29.4412,-92.0613,10.0,11.1,8.0,,'11111222,11111222,99999999' 
WAVCIS,ioos:station:WAVCIS:CSI03:3,2010-01-08T02:00:00Z,29.4412,-92.0613,10.0,11.27,16.0,,'11111222,11111222,99999999' 
WAVCIS,ioos:station:WAVCIS:CSI03:3,2010-01-08T03:00:00Z,29.4412,-92.0613,10.0,10.04,5.0,,'11111222,11111222,99999999' 
WAVCIS,ioos:station:WAVCIS:CSI03:3,2010-01-08T04:00:00Z,29.4412,-92.0613,10.0,10.9,8.0,,'11111222,11111222,99999999' 
WAVCIS,ioos:station:WAVCIS:CSI03:3,2010-01-08T05:00:00Z,29.4412,-92.0613,10.0,11.84,13.0,,'11111222,11111222,99999999' 
WAVCIS,ioos:station:WAVCIS:CSI03:3,2010-01-08T06:00:00Z,29.4412,-92.0613,10.0,11.12,15.0,,'11111222,11111222,99999999' 
WAVCIS,ioos:station:WAVCIS:CSI03:3,2010-01-08T07:00:00Z,29.4412,-92.0613,10.0,10.83,14.0,,'11111222,11111222,99999999' 
WAVCIS,ioos:station:WAVCIS:CSI03:3,2010-01-08T08:00:00Z,29.4412,-92.0613,10.0,10.91,9.0,,'11111222,11111222,99999999' 
WAVCIS,ioos:station:WAVCIS:CSI03:3,2010-01-08T09:00:00Z,29.4412,-92.0613,10.0,11.12,11.0,,'11111222,11111222,99999999' 
WAVCIS,ioos:station:WAVCIS:CSI03:3,2010-01-08T10:00:00Z,29.4412,-92.0613,10.0,10.78,8.0,,'11111222,11111222,99999999' 
WAVCIS,ioos:station:WAVCIS:CSI03:3,2010-01-08T11:00:00Z,29.4412,-92.0613,10.0,10.41,16.0,,'11111222,11111222,99999999' 
WAVCIS,ioos:station:WAVCIS:CSI03:3,2010-01-08T12:00:00Z,29.4412,-92.0613,10.0,9.84,14.0,,'11111222,11111222,99999999' 
WAVCIS,ioos:station:WAVCIS:CSI03:3,2010-01-08T13:00:00Z,29.4412,-92.0613,10.0,9.38,10.0,,'11111222,11111222,99999999' 
WAVCIS,ioos:station:WAVCIS:CSI03:3,2010-01-08T14:00:00Z,29.4412,-92.0613,10.0,8.56,8.0,,'11111222,11111222,99999999' 
WAVCIS,ioos:station:WAVCIS:CSI03:3,2010-01-08T15:00:00Z,29.4412,-92.0613,10.0,7.92,5.0,,'11111222,11111222,99999999' 
WAVCIS,ioos:station:WAVCIS:CSI03:3,2010-01-08T16:00:00Z,29.4412,-92.0613,10.0,6.663,7.0,,'11111222,11111222,99999999' 
WAVCIS,ioos:station:WAVCIS:CSI03:3,2010-01-08T17:00:00Z,29.4412,-92.0613,10.0,6.798,5.0,,'11111222,11111222,99999999' 
WAVCIS,ioos:station:WAVCIS:CSI03:3,2010-01-08T18:00:00Z,29.4412,-92.0613,10.0,6.512,4.0,,'11111222,11111222,99999999' 
WAVCIS,ioos:station:WAVCIS:CSI03:3,2010-01-08T19:00:00Z,29.4412,-92.0613,10.0,6.989,359.0,,'11111222,11111222,99999999' 
WAVCIS,ioos:station:WAVCIS:CSI03:3,2010-01-08T20:00:00Z,29.4412,-92.0613,10.0,7.23,4.0,,'11111222,11111222,99999999' 
WAVCIS,ioos:station:WAVCIS:CSI03:3,2010-01-08T21:00:00Z,29.4412,-92.0613,10.0,7.38,0.0,,'11111222,11111222,99999999' 
WAVCIS,ioos:station:WAVCIS:CSI03:3,2010-01-08T22:00:00Z,29.4412,-92.0613,10.0,7.35,3.0,,'11111222,11111222,99999999' 
WAVCIS,ioos:station:WAVCIS:CSI03:3,2010-01-08T23:00:00Z,29.4412,-92.0613,10.0,6.972,3.0,,'11111222,11111222,99999999' 
WAVCIS,ioos:station:WAVCIS:CSI03:3,2010-01-09T00:00:00Z,29.4412,-92.0613,10.0,7.3,6.0,,'11111222,11111222,99999999' 
WAVCIS,ioos:station:WAVCIS:CSI03:3,2010-01-09T01:00:00Z,29.4412,-92.0613,10.0,8.43,9.0,,'11111222,11111222,99999999' 
WAVCIS,ioos:station:WAVCIS:CSI03:3,2010-01-09T02:00:00Z,29.4412,-92.0613,10.0,6.903,8.0,,'11111222,11111222,99999999' 
WAVCIS,ioos:station:WAVCIS:CSI03:3,2010-01-09T03:00:00Z,29.4412,-92.0613,10.0,6.695,7.0,,'11111222,11111222,99999999' 
WAVCIS,ioos:station:WAVCIS:CSI03:3,2010-01-09T04:00:00Z,29.4412,-92.0613,10.0,6.718,3.0,,'11111222,11111222,99999999' 
WAVCIS,ioos:station:WAVCIS:CSI03:3,2010-01-09T05:00:00Z,29.4412,-92.0613,10.0,7.51,3.0,,'11111222,11111222,99999999' 
WAVCIS,ioos:station:WAVCIS:CSI03:3,2010-01-09T06:00:00Z,29.4412,-92.0613,10.0,8.17,2.0,,'11111222,11111222,99999999' 
WAVCIS,ioos:station:WAVCIS:CSI03:3,2010-01-09T07:00:00Z,29.4412,-92.0613,10.0,7.77,10.0,,'11111222,11111222,99999999' 
WAVCIS,ioos:station:WAVCIS:CSI03:3,2010-01-09T08:00:00Z,29.4412,-92.0613,10.0,7.41,10.0,,'11111222,11111222,99999999' 
WAVCIS,ioos:station:WAVCIS:CSI03:3,2010-01-09T09:00:00Z,29.4412,-92.0613,10.0,7.9,21.0,,'11111222,11111222,99999999' 
WAVCIS,ioos:station:WAVCIS:CSI03:3,2010-01-09T10:00:00Z,29.4412,-92.0613,10.0,8.02,13.0,,'11111222,11111222,99999999' 
WAVCIS,ioos:station:WAVCIS:CSI03:3,2010-01-09T11:00:00Z,29.4412,-92.0613,10.0,7.92,16.0,,'11111222,11111222,99999999' 
WAVCIS,ioos:station:WAVCIS:CSI03:3,2010-01-09T12:00:00Z,29.4412,-92.0613,10.0,7.65,17.0,,'11111222,11111222,99999999' 
WAVCIS,ioos:station:WAVCIS:CSI03:3,2010-01-09T13:00:00Z,29.4412,-92.0613,10.0,7.08,22.0,,'11111222,11111222,99999999' 
WAVCIS,ioos:station:WAVCIS:CSI03:3,2010-01-09T14:00:00Z,29.4412,-92.0613,10.0,6.904,16.0,,'11111222,11111222,99999999' 